Total_Precipitation_Accumulation
2.62 2.25 2.14 2.05 2.21 2.51 3.43 3.40 2.53 2.44 2.55 2.45 2.59 3.26 3.48 3.39 3.96 5.09 3.91 2.43 3.65 4.16 1.37 0.66 0.61 0.86 0.97 1.39 1.63 1.92 2.05 2.10 2.09 2.20 1.89 1.38 1.12 1.00 0.89 0.76 0.78 1.13 1.56 1.67 1.94 2.48 1.86 0.56 0.57 0.90 1.12 0.50 0.23 0.19
2.88 2.61 2.18 2.02 2.21 2.50 3.06 3.42 2.57 2.43 2.53 2.37 2.13 2.47 3.53 3.64 3.83 4.98 4.80 3.02 3.35 3.85 2.17 0.91 0.47 0.44 0.59 0.92 1.31 1.51 1.99 1.71 2.39 2.74 2.19 1.50 1.15 1.09 0.89 1.20 0.68 1.11 0.93 1.16 1.29 1.78 1.42 1.10 1.03 0.64 0.39 0.48 0.39 0.24
2.93 2.42 1.87 1.88 2.20 2.55 2.95 3.40 2.79 2.54 2.39 2.18 2.03 2.24 3.12 3.68 3.96 4.62 4.28 3.17 5.15 5.07 2.46 1.26 0.97 0.38 0.29 0.29 0.58 1.22 1.24 1.46 1.64 1.81 1.91 1.54 1.29 0.79 0.85 0.79 0.80 0.89 0.92 1.24 1.49 1.18 0.86 1.25 0.99 0.60 0.47 0.53 0.44 0.25
2.50 2.23 1.89 1.86 2.14 2.66 3.11 3.37 3.03 2.59 2.20 2.08 2.13 2.45 3.12 3.78 3.94 4.42 4.34 3.41 4.35 3.99 3.43 1.72 0.68 0.64 0.37 0.27 0.23 0.35 0.61 0.69 0.90 1.21 1.59 1.46 0.96 0.48 0.55 0.50 0.52 0.68 0.81 0.93 1.45 1.12 0.97 1.00 1.25 0.69 0.42 0.40 0.40 0.19
2.48 2.18 1.92 1.88 2.06 2.75 3.20 3.56 3.06 2.66 2.44 2.13 2.32 2.83 3.59 4.35 4.40 4.69 4.36 3.27 2.88 3.38 3.47 1.86 0.66 0.58 0.66 0.49 0.40 0.37 0.51 0.81 1.21 1.77 1.45 0.71 0.51 0.56 0.46 0.65 0.45 0.18 0.49 1.17 1.48 1.47 1.37 1.22 1.10 1.13 0.74 0.49 0.42 0.52
2.35 2.11 1.97 1.98 2.10 2.72 3.03 3.56 2.92 2.81 2.58 2.26 2.45 3.14 3.77 4.35 5.46 7.10 10.47 5.84 2.69 2.98 3.79 2.47 1.27 0.55 0.64 0.69 0.81 0.69 0.72 1.05 1.54 1.77 1.32 0.64 0.40 0.80 0.66 0.69 0.54 0.55 0.36 0.36 0.63 0.78 1.14 1.18 0.72 0.41 0.34 0.22 0.14 0.33
2.14 2.00 2.16 2.19 2.37 2.88 3.19 3.34 2.99 2.80 2.49 2.40 2.69 2.95 3.64 4.46 5.58 6.07 5.62 3.54 1.74 3.09 4.93 3.03 2.00 1.07 0.77 1.19 1.24 1.28 1.15 1.72 1.84 2.04 1.42 0.78 0.56 1.08 1.04 0.62 0.36 0.25 0.16 0.10 0.13 0.24 0.30 0.21 0.17 0.04 0.02 0.02 0.02 0.05
2.24 2.29 2.34 2.21 2.66 3.14 3.33 3.16 3.21 2.86 2.52 2.83 3.23 3.44 4.23 5.36 6.34 3.97 1.69 1.44 1.84 3.27 3.37 3.05 2.21 1.99 1.11 1.93 1.90 1.43 1.84 2.09 1.96 1.56 1.06 0.71 0.79 1.46 1.38 0.32 0.06 0.02 0.02 0.04 0.07 0.07 0.06 0.05 0.03 0.02 0.02 0.02 0.02 0.03
2.08 2.24 2.14 2.31 3.09 3.32 2.96 3.30 3.59 3.16 3.19 3.41 3.87 5.10 7.76 8.96 7.66 4.38 2.20 2.53 2.48 3.26 3.09 1.76 1.65 2.62 1.66 2.06 2.35 1.86 1.73 2.05 1.49 1.32 0.87 0.89 1.02 1.53 0.94 0.30 0.12 0.07 0.07 0.12 0.11 0.08 0.08 0.10 0.11 0.12 0.11 0.12 0.16 0.28
2.41 2.73 2.84 3.26 3.23 2.90 2.91 3.28 3.36 3.21 3.30 4.08 6.17 8.80 10.88 7.56 3.92 4.02 6.31 7.37 5.84 2.90 1.60 1.01 0.90 1.87 2.09 2.27 2.55 2.61 2.03 1.41 1.26 0.88 0.91 1.34 1.07 0.59 0.31 0.37 0.38 0.33 0.26 0.20 0.19 0.16 0.17 0.17 0.17 0.23 0.29 0.36 0.46 0.45
2.56 2.87 3.06 3.20 3.03 3.12 3.23 3.10 2.77 2.87 4.90 7.13 8.49 7.40 6.19 4.61 4.30 6.13 7.04 6.00 4.19 2.38 0.79 0.55 0.50 0.99 1.56 2.37 1.98 1.86 2.37 2.03 1.31 0.92 0.96 1.29 1.25 0.82 0.62 0.68 0.41 0.22 0.16 0.20 0.23 0.24 0.26 0.29 0.38 0.48 0.47 0.36 0.29 0.32
2.57 2.49 2.46 2.40 2.29 2.35 2.31 2.30 2.56 4.04 5.88 5.01 4.27 5.35 5.82 6.01 6.00 5.11 4.20 2.66 1.61 0.90 0.38 0.38 0.45 0.64 1.40 2.55 2.55 1.88 1.74 1.69 1.62 1.51 1.63 1.36 0.95 0.71 0.75 0.77 0.44 0.28 0.19 0.20 0.25 0.35 0.41 0.49 0.51 0.39 0.32 0.35 0.41 0.43
2.43 2.20 2.04 1.83 1.76 1.87 2.00 2.50 2.76 3.58 3.27 3.46 4.06 5.63 4.98 5.15 4.71 3.17 2.07 1.09 0.91 0.69 0.51 0.42 0.75 1.14 1.32 2.45 2.90 2.07 1.81 1.70 1.42 1.81 1.84 1.46 0.96 0.59 0.58 0.53 0.46 0.36 0.32 0.36 0.43 0.50 0.36 0.29 0.31 0.38 0.46 0.60 0.62 0.69
2.44 2.04 2.03 2.04 2.20 2.50 2.66 2.69 2.96 3.53 3.43 4.27 4.42 4.19 3.43 2.55 1.63 1.07 0.63 0.53 0.61 0.67 0.62 0.59 0.92 1.29 1.63 2.35 3.02 2.36 1.86 1.12 1.40 1.41 1.33 1.28 0.95 1.10 0.76 0.69 0.61 0.68 0.74 0.68 0.71 0.70 0.83 0.74 0.81 0.96 0.85 0.88 0.70 0.79
2.41 2.05 2.26 2.50 2.53 2.48 2.28 2.20 2.76 3.13 3.10 2.99 2.26 1.71 1.37 1.21 0.96 0.81 0.68 0.68 0.75 1.09 1.19 1.50 1.59 1.56 1.84 2.19 1.80 1.45 1.11 1.04 1.04 1.12 1.78 1.13 0.93 0.86 0.72 0.60 0.61 0.65 0.70 0.76 0.85 0.91 1.02 0.93 0.84 1.10 1.08 0.89 0.66 0.64
2.67 3.22 2.94 2.57 2.35 1.98 1.70 1.99 2.69 2.76 2.23 1.58 1.50 1.39 1.13 1.01 1.13 1.03 0.90 0.92 1.16 1.49 1.58 1.66 1.80 1.87 1.89 1.36 1.15 0.99 0.86 1.34 1.50 1.02 1.01 0.89 0.81 0.82 0.88 0.85 0.84 0.89 0.79 0.71 0.69 0.68 0.72 0.70 0.66 0.68 0.75 0.71 0.65 0.49
2.65 3.75 2.91 2.05 1.74 1.62 1.53 2.26 2.85 3.22 2.25 1.25 1.35 1.39 1.34 1.14 1.16 1.20 1.07 1.04 1.08 1.26 1.48 1.20 1.55 1.44 1.38 1.24 1.39 1.19 1.69 1.97 1.34 1.10 0.93 0.89 0.92 0.93 0.90 0.87 0.89 0.78 0.62 0.56 0.55 0.51 0.49 0.46 0.35 0.27 0.35 0.51 0.46 0.45
2.05 2.09 1.88 1.53 1.51 2.03 2.46 2.50 2.45 2.20 1.66 1.30 1.40 1.57 1.17 1.26 1.12 1.02 1.00 0.85 0.70 0.68 0.76 0.78 0.53 0.51 0.82 0.92 1.33 1.48 1.61 1.48 1.20 1.07 1.06 1.09 1.02 0.91 0.83 0.73 0.71 0.59 0.49 0.50 0.44 0.43 0.39 0.31 0.29 0.38 0.30 0.25 0.17 0.18
2.10 1.95 1.63 1.37 1.57 2.76 3.48 2.40 1.38 1.17 1.13 1.24 1.31 1.08 0.88 0.97 0.76 0.70 0.50 0.45 0.32 0.34 0.49 0.59 0.69 0.72 0.97 1.17 1.34 1.12 1.02 0.96 1.01 0.93 0.84 0.87 0.81 0.75 0.68 0.59 0.53 0.51 0.45 0.44 0.36 0.34 0.33 0.28 0.27 0.23 0.21 0.16 0.19 0.21
2.49 2.15 1.65 1.36 1.31 2.10 1.80 1.27 0.63 0.76 1.08 1.15 0.90 0.55 0.46 0.51 0.30 0.20 0.20 0.21 0.29 0.47 0.62 0.65 0.91 1.05 1.04 1.09 0.93 0.87 0.84 0.76 0.62 0.59 0.69 0.74 0.69 0.60 0.63 0.52 0.48 0.44 0.37 0.37 0.34 0.31 0.24 0.22 0.22 0.22 0.23 0.25 0.27 0.32
2.97 2.64 2.23 1.93 1.96 1.60 1.19 0.68 0.65 0.58 0.93 0.99 0.69 0.45 0.47 0.31 0.36 0.40 0.47 0.45 0.80 0.92 0.90 0.95 0.93 0.94 0.64 0.57 0.54 0.52 0.52 0.48 0.51 0.47 0.50 0.62 0.66 0.53 0.54 0.51 0.45 0.43 0.40 0.38 0.36 0.40 0.40 0.42 0.39 0.33 0.35 0.33 0.34 0.28
3.19 2.97 3.79 3.48 2.97 1.82 0.97 0.38 0.50 0.48 0.67 0.94 0.77 0.62 0.66 0.58 0.52 0.60 0.73 1.06 1.19 1.07 0.94 0.73 0.59 0.48 0.36 0.36 0.35 0.29 0.35 0.30 0.37 0.41 0.42 0.38 0.45 0.47 0.51 0.55 0.48 0.50 0.54 0.54 0.52 0.58 0.60 0.51 0.46 0.45 0.42 0.37 0.26 0.26
2.09 2.67 3.16 3.15 2.99 1.83 1.11 0.48 0.67 0.69 0.95 0.93 0.86 0.84 0.64 0.64 0.66 0.60 1.08 1.00 1.13 1.04 0.75 0.50 0.44 0.39 0.34 0.33 0.22 0.16 0.12 0.12 0.21 0.28 0.37 0.40 0.44 0.52 0.56 0.61 0.60 0.57 0.56 0.58 0.55 0.62 0.68 0.59 0.52 0.48 0.40 0.39 0.38 0.44
2.28 3.17 3.27 2.52 1.86 1.57 1.19 0.77 0.54 0.54 0.72 0.75 0.95 0.81 0.48 0.37 0.34 0.49 0.62 0.87 1.09 0.75 0.39 0.42 0.41 0.35 0.29 0.31 0.31 0.25 0.27 0.21 0.27 0.31 0.31 0.33 0.38 0.46 0.47 0.49 0.47 0.46 0.45 0.48 0.46 0.45 0.44 0.39 0.34 0.33 0.35 0.36 0.37 0.44
3.69 3.34 2.30 1.75 1.13 0.79 0.80 0.78 0.56 0.55 0.69 0.49 0.50 0.48 0.38 0.27 0.45 0.54 0.56 1.06 0.89 0.69 0.44 0.35 0.44 0.40 0.38 0.42 0.47 0.38 0.29 0.30 0.35 0.37 0.32 0.30 0.36 0.53 0.57 0.49 0.46 0.42 0.40 0.48 0.50 0.49 0.50 0.45 0.44 0.41 0.41 0.39 0.41 0.47
2.95 1.81 1.27 0.78 0.51 0.35 0.31 0.37 0.54 0.44 0.35 0.51 0.49 0.36 0.30 0.48 0.55 0.78 1.00 1.32 0.90 0.57 0.51 0.50 0.47 0.47 0.45 0.32 0.31 0.29 0.23 0.23 0.25 0.33 0.28 0.21 0.28 0.45 0.42 0.36 0.45 0.49 0.34 0.36 0.39 0.43 0.40 0.41 0.43 0.45 0.50 0.51 0.51 0.53
1.61 1.20 0.48 0.17 0.19 0.23 0.31 0.26 0.47 0.67 0.79 0.75 0.55 0.41 0.65 0.85 0.91 1.27 1.25 1.08 0.73 0.56 0.43 0.39 0.31 0.38 0.44 0.31 0.21 0.18 0.11 0.09 0.17 0.31 0.32 0.26 0.27 0.33 0.34 0.37 0.38 0.35 0.19 0.18 0.21 0.26 0.33 0.34 0.35 0.37 0.45 0.48 0.49 0.59
0.60 0.34 0.34 0.31 0.40 0.39 0.44 0.46 0.70 1.08 1.15 0.83 0.60 0.66 0.90 0.89 1.01 1.09 0.99 0.91 0.63 0.40 0.30 0.26 0.21 0.18 0.20 0.21 0.20 0.16 0.14 0.09 0.08 0.15 0.35 0.38 0.34 0.24 0.19 0.22 0.20 0.14 0.14 0.16 0.18 0.17 0.21 0.26 0.29 0.34 0.41 0.45 0.56 0.66
0.56 0.45 0.37 0.43 0.45 0.52 0.75 0.63 0.55 0.73 0.76 0.52 0.53 0.52 0.59 0.64 0.87 0.86 0.90 0.76 0.51 0.36 0.31 0.31 0.39 0.26 0.22 0.18 0.17 0.17 0.18 0.14 0.17 0.23 0.30 0.50 0.45 0.31 0.20 0.16 0.13 0.10 0.11 0.14 0.16 0.16 0.18 0.22 0.24 0.36 0.44 0.51 0.56 0.53
0.32 0.35 0.48 0.46 0.50 0.60 0.70 0.48 0.56 0.55 0.49 0.40 0.35 0.42 0.69 1.05 1.25 0.95 0.82 0.67 0.56 0.50 0.47 0.42 0.39 0.29 0.29 0.27 0.34 0.35 0.41 0.25 0.26 0.34 0.38 0.40 0.34 0.26 0.19 0.16 0.14 0.14 0.14 0.15 0.14 0.15 0.18 0.19 0.24 0.37 0.37 0.34 0.33 0.31
0.31 0.34 0.46 0.48 0.54 0.55 0.51 0.45 0.52 0.51 0.50 0.48 0.51 0.53 0.91 1.21 1.15 0.96 0.82 0.80 0.54 0.47 0.46 0.39 0.36 0.33 0.31 0.30 0.28 0.29 0.35 0.24 0.19 0.19 0.22 0.23 0.18 0.16 0.15 0.13 0.15 0.17 0.16 0.13 0.13 0.15 0.15 0.18 0.21 0.24 0.23 0.22 0.24 0.24
0.41 0.47 0.48 0.58 0.75 0.69 0.66 0.66 0.53 0.58 0.57 0.50 0.58 0.62 0.92 1.09 1.12 0.95 0.98 0.89 0.65 0.58 0.59 0.53 0.52 0.60 0.54 0.55 0.47 0.41 0.35 0.24 0.17 0.16 0.16 0.15 0.12 0.10 0.10 0.13 0.17 0.19 0.15 0.14 0.16 0.18 0.19 0.22 0.23 0.24 0.25 0.26 0.23 0.22
0.53 0.55 0.69 0.82 0.84 0.74 0.64 0.61 0.57 0.61 0.60 0.59 0.69 0.83 0.97 0.88 0.89 0.93 0.78 0.88 1.04 0.84 0.74 0.68 0.64 0.62 0.52 0.49 0.42 0.36 0.27 0.25 0.25 0.24 0.19 0.16 0.14 0.17 0.19 0.23 0.25 0.22 0.20 0.20 0.23 0.25 0.25 0.26 0.26 0.26 0.26 0.25 0.23 0.22